Weather History for Lynchburg, VA

Change the Weather History Date:

Sunday, December 9, 2012

  Actual Average Record
Temperature  
Mean Temperature 50 °F 39 °F  
Max Temperature 59 °F 49 °F 73 °F (1946)
Min Temperature 41 °F 29 °F 10 °F (2010)
Degree Days  
Heating Degree Days 15 26  
Month to date heating degree days 140 225  
Since 1 July heating degree days 1109 1119  
Cooling Degree Days 0 0  
Month to date cooling degree days 0 0  
Year to date cooling degree days 1244 1032  
Moisture  
Dew Point 48 °F    
Average Humidity 89    
Maximum Humidity 100    
Minimum Humidity 77    
Precipitation  
Precipitation 0.01 in 0.11 in 1.18 in (1978)
Month to date precipitation 0.03 1.03  
Year to date precipitation 27.22 39.36  
Snow  
Snow 0.00 in - - ()
Month to date snowfall 0.0  
Since 1 July snowfall 0.0  
Snow Depth 0.00 in    
Sea Level Pressure  
Sea Level Pressure 30.06 in    
Wind  
Wind Speed 4 mph (NE)    
Max Wind Speed 16 mph    
Max Gust Speed 21 mph    
Visibility 3 miles    
Events Fog , Rain    
T = Trace of Precipitation, MM = Missing Value Source: NWS Daily Summary

Daily Weather History Graph

Daily Weather History Graph

Search for Another Location

Airport:

Trip Planner

Search our weather history database for the weather conditions in past years. The results will help you decide how hot, cold, wet, or windy it might be!

Date:

Astronomy

Dec. 09, 2012 Rise Set
Actual Time 7:19 AM EST 4:59 PM EST
Civil Twilight 6:50 AM EST 5:28 PM EST
Nautical Twilight 6:18 AM EST 6:00 PM EST
Astronomical Twilight 5:46 AM EST 6:32 PM EST
Moon 2:54 AM EST (12/9) 2:01 PM EST (12/9)
Length of Visible Light 10h 37m
Length of Day
9h 39m
Waning Crescent, 19% of the Moon is Illuminated
Dec 9
Waning Crescent
Dec 13
New
Dec 20
First Quarter
Dec 28
Full
Jan 4
Last Quarter

Hourly Weather History & Observations

Time (EST) Temp. Windchill Dew Point Humidity Pressure Visibility Wind Dir Wind Speed Gust Speed Precip Events Conditions
12:19 AM 44.6 °F - 44.6 °F 100% 30.04 in 1.8 mi Calm Calm - N/A   Clear
12:40 AM 44.6 °F - 44.6 °F 100% 30.04 in 3.0 mi Calm Calm - N/A   Partly Cloudy
12:54 AM 43.0 °F - 43.0 °F 100% 30.04 in 8.0 mi Calm Calm - N/A   Mostly Cloudy
1:12 AM 46.4 °F - 46.4 °F 100% 30.04 in 1.8 mi Calm Calm - N/A   Mostly Cloudy
1:20 AM 48.2 °F - 46.4 °F 93% 30.04 in 1.0 mi South 3.5 mph - N/A   Mostly Cloudy
1:25 AM 48.2 °F - 48.2 °F 100% 30.04 in 2.5 mi SSW 4.6 mph - N/A   Mostly Cloudy
1:32 AM 48.2 °F - 48.2 °F 100% 30.04 in 5.0 mi SSW 4.6 mph - N/A   Overcast
1:54 AM 50.0 °F - 48.9 °F 96% 30.04 in 7.0 mi SSW 3.5 mph - N/A   Overcast
2:35 AM 46.4 °F - 44.6 °F 93% 30.05 in 1.8 mi Calm Calm - N/A   Clear
2:40 AM 44.6 °F - 44.6 °F 100% 30.05 in 0.8 mi Calm Calm - N/A   Clear
2:44 AM 44.6 °F - 44.6 °F 100% 30.05 in 0.2 mi Calm Calm - N/A Fog Fog
2:54 AM 45.0 °F - 45.0 °F 100% 30.05 in 0.5 mi Calm Calm - N/A Fog Fog
2:59 AM 46.4 °F - 44.6 °F 93% 30.05 in 1.5 mi Calm Calm - N/A   Partly Cloudy
3:06 AM 46.4 °F - 46.4 °F 100% 30.05 in 7.0 mi Calm Calm - N/A   Partly Cloudy
3:15 AM 44.6 °F - 44.6 °F 100% 30.04 in 1.8 mi Calm Calm - N/A   Partly Cloudy
3:26 AM 44.6 °F - 44.6 °F 100% 30.05 in 0.8 mi Calm Calm - N/A   Clear
3:32 AM 44.6 °F - 44.6 °F 100% 30.05 in 0.2 mi Calm Calm - N/A Fog Fog
3:44 AM 42.8 °F - 42.8 °F 100% 30.05 in 0.2 mi Calm Calm - N/A Fog Fog
3:50 AM 41.0 °F - 41.0 °F 100% 30.05 in 1.0 mi Calm Calm - N/A   Mostly Cloudy
3:54 AM 42.1 °F - 42.1 °F 100% 30.05 in 4.0 mi Calm Calm - N/A   Mostly Cloudy
4:54 AM 45.0 °F - 45.0 °F 100% 30.05 in 3.0 mi Calm Calm - N/A   Overcast
5:02 AM 46.4 °F - 46.4 °F 100% 30.06 in 2.0 mi Calm Calm - N/A   Mostly Cloudy
5:10 AM 44.6 °F - 44.6 °F 100% 30.06 in 1.5 mi Calm Calm - N/A   Mostly Cloudy
5:23 AM 44.6 °F - 44.6 °F 100% 30.05 in 2.5 mi Calm Calm - N/A   Mostly Cloudy
5:31 AM 44.6 °F - 44.6 °F 100% 30.05 in 4.0 mi Calm Calm - N/A   Mostly Cloudy
5:47 AM 46.4 °F - 46.4 °F 100% 30.06 in 2.5 mi Calm Calm - N/A   Overcast
5:54 AM 46.0 °F - 46.0 °F 100% 30.06 in 3.0 mi Calm Calm - N/A   Overcast
6:47 AM 46.4 °F - 46.4 °F 100% 30.09 in 2.5 mi Calm Calm - N/A   Overcast
6:54 AM 46.9 °F - 46.0 °F 97% 30.09 in 2.5 mi Calm Calm - N/A   Overcast
7:11 AM 46.4 °F 44.3 °F 46.4 °F 100% 30.10 in 3.0 mi NNE 4.6 mph - N/A   Overcast
7:28 AM 48.2 °F - 48.2 °F 100% 30.12 in 2.0 mi North 3.5 mph - N/A   Overcast
7:54 AM 48.9 °F - 48.0 °F 97% 30.12 in 3.0 mi North 3.5 mph - N/A   Overcast
8:54 AM 52.0 °F - 50.0 °F 93% 30.14 in 7.0 mi NNE 8.1 mph - N/A   Mostly Cloudy
9:54 AM 55.9 °F - 51.1 °F 84% 30.14 in 10.0 mi NNE 8.1 mph 19.6 mph N/A   Clear
10:54 AM 57.0 °F - 50.0 °F 77% 30.13 in 10.0 mi NE 16.1 mph 20.7 mph N/A   Partly Cloudy
11:13 AM 57.2 °F - 51.8 °F 82% 30.13 in 10.0 mi ENE 8.1 mph - N/A   Mostly Cloudy
11:54 AM 57.0 °F - 51.1 °F 81% 30.11 in 10.0 mi East 8.1 mph - N/A   Overcast
12:54 PM 57.9 °F - 51.1 °F 78% 30.09 in 10.0 mi East 6.9 mph - N/A   Overcast
1:54 PM 57.0 °F - 51.1 °F 81% 30.07 in 10.0 mi NE 8.1 mph - N/A   Overcast
2:54 PM 55.0 °F - 51.1 °F 86% 30.08 in 10.0 mi East 4.6 mph - N/A   Overcast
3:54 PM 54.0 °F - 52.0 °F 93% 30.09 in 5.0 mi ESE 3.5 mph - 0.01 in Rain Light Rain
4:46 PM 53.6 °F - 51.8 °F 94% 30.08 in 6.0 mi ENE 4.6 mph - 0.00 in Rain Light Rain
4:54 PM 53.1 °F - 52.0 °F 96% 30.08 in 6.0 mi East 3.5 mph - 0.00 in Rain Light Rain
5:54 PM 53.1 °F - 52.0 °F 96% 30.08 in 5.0 mi NE 5.8 mph - 0.00 in   Overcast
6:03 PM 51.8 °F - 51.8 °F 100% 30.07 in 5.0 mi NE 5.8 mph - N/A   Overcast
6:36 PM 51.8 °F - 51.8 °F 100% 30.07 in 6.0 mi NE 5.8 mph - N/A   Overcast
6:54 PM 52.0 °F - 51.1 °F 97% 30.07 in 5.0 mi NE 5.8 mph - N/A   Overcast
7:38 PM 51.8 °F - 51.8 °F 100% 30.06 in 3.0 mi NE 5.8 mph - N/A   Overcast
7:54 PM 52.0 °F - 52.0 °F 100% 30.06 in 2.5 mi NNE 4.6 mph - N/A   Overcast
8:14 PM 51.8 °F - 51.8 °F 100% 30.06 in 0.5 mi NNE 5.8 mph - N/A Fog Fog
8:54 PM 51.1 °F - 51.1 °F 100% 30.05 in 0.5 mi NNE 4.6 mph - N/A Fog Fog
9:10 PM 51.8 °F - 51.8 °F 100% 30.04 in 0.5 mi NNE 5.8 mph - N/A Fog Fog
9:22 PM 51.8 °F - 51.8 °F 100% 30.03 in 0.2 mi NNE 5.8 mph - N/A Fog Fog
9:54 PM 51.1 °F - 51.1 °F 100% 30.02 in 0.2 mi NNE 4.6 mph - N/A Fog Fog
10:38 PM 51.8 °F - 51.8 °F 100% 30.02 in 0.2 mi Calm Calm - N/A Fog Fog
10:50 PM 51.8 °F - 51.8 °F 100% 30.01 in 0.5 mi Calm Calm - N/A Fog Fog
10:54 PM 51.1 °F - 51.1 °F 100% 30.00 in 0.8 mi Calm Calm - N/A   Mist
11:01 PM 51.8 °F - 51.8 °F 100% 30.01 in 1.0 mi Calm Calm - N/A   Mist
11:17 PM 51.8 °F - 51.8 °F 100% 30.01 in 0.8 mi Calm Calm - N/A   Mist
11:25 PM 51.8 °F - 51.8 °F 100% 30.00 in 1.0 mi Calm Calm - N/A   Mist
11:41 PM 51.8 °F - 51.8 °F 100% 30.00 in 1.5 mi Calm Calm - N/A   Overcast
11:49 PM 51.8 °F - 51.8 °F 100% 29.99 in 1.0 mi Calm Calm - N/A   Overcast
11:54 PM 51.1 °F - 51.1 °F 100% 29.99 in 1.0 mi Calm Calm - N/A   Overcast